Wetterdaten: aktuell Freitag, 22.03.2019 14:20
Datum Zeit Temp. A. Temp. A. min Feuchte A. Luftdruck Regen Wind Richtung Richtung Sonnenschein Solar Taupunkt Windchill Windben
22.03.2019 14:20 19,4 C 19,4 C 32 % 1036,0 hPa 0,0 l/m 6,9 km/h (2 Bft) S-SO 151 0 min 0 W/m 2,3 C 19,4 C 16,1 km/h (3 Bft)
22.03.2019 14:15 19,4 C 19,4 C 32 % 1036,1 hPa 0,0 l/m 8,3 km/h (2 Bft) SO 144 0 min 0 W/m 2,3 C 19,4 C 17,7 km/h (3 Bft)
22.03.2019 14:10 19,4 C 19,4 C 32 % 1036,1 hPa 0,0 l/m 9,2 km/h (2 Bft) S-SO 162 0 min 0 W/m 2,3 C 19,4 C 19,3 km/h (3 Bft)
22.03.2019 14:05 19,4 C 19,3 C 31 % 1036,1 hPa 0,0 l/m 6,3 km/h (2 Bft) SO 139 0 min 0 W/m 1,8 C 19,4 C 19,3 km/h (3 Bft)
22.03.2019 14:00 19,3 C 19,2 C 32 % 1036,2 hPa 0,0 l/m 6,9 km/h (2 Bft) O-SO 103 0 min 0 W/m 2,2 C 19,3 C 14,5 km/h (3 Bft)
22.03.2019 13:55 19,2 C 19,2 C 31 % 1036,4 hPa 0,0 l/m 3,7 km/h (1 Bft) O 98 0 min 0 W/m 1,7 C 19,2 C 12,9 km/h (3 Bft)
22.03.2019 13:50 19,3 C 19,2 C 32 % 1036,4 hPa 0,0 l/m 7,7 km/h (2 Bft) O 92 0 min 0 W/m 2,2 C 19,3 C 19,3 km/h (3 Bft)
22.03.2019 13:45 19,2 C 19,0 C 31 % 1036,4 hPa 0,0 l/m 10,8 km/h (2 Bft) O 83 0 min 0 W/m 1,7 C 19,2 C 22,5 km/h (4 Bft)
22.03.2019 13:40 19,0 C 18,8 C 31 % 1036,5 hPa 0,0 l/m 7,6 km/h (2 Bft) O 95 0 min 0 W/m 1,5 C 19,0 C 19,3 km/h (3 Bft)
22.03.2019 13:35 18,8 C 18,7 C 32 % 1036,6 hPa 0,0 l/m 7,1 km/h (2 Bft) N-NO 30 0 min 0 W/m 1,8 C 18,8 C 19,3 km/h (3 Bft)
22.03.2019 13:30 18,7 C 18,6 C 32 % 1036,7 hPa 0,0 l/m 6,2 km/h (2 Bft) O-SO 121 0 min 0 W/m 1,7 C 18,7 C 16,1 km/h (3 Bft)
22.03.2019 13:25 18,6 C 18,6 C 33 % 1036,8 hPa 0,0 l/m 7,3 km/h (2 Bft) NO 44 0 min 0 W/m 2,0 C 18,6 C 14,5 km/h (3 Bft)
22.03.2019 13:20 18,6 C 18,6 C 32 % 1036,8 hPa 0,0 l/m 7,0 km/h (2 Bft) O-NO 60 0 min 0 W/m 1,6 C 18,6 C 17,7 km/h (3 Bft)
22.03.2019 13:15 18,6 C 18,6 C 31 % 1036,8 hPa 0,0 l/m 6,7 km/h (2 Bft) O-NO 76 0 min 0 W/m 1,1 C 18,6 C 14,5 km/h (3 Bft)
22.03.2019 13:10 18,6 C 18,6 C 31 % 1036,9 hPa 0,0 l/m 5,6 km/h (1 Bft) N-NO 22 0 min 0 W/m 1,1 C 18,6 C 12,9 km/h (3 Bft)
22.03.2019 13:05 18,8 C 18,8 C 32 % 1037,0 hPa 0,0 l/m 7,0 km/h (2 Bft) O 82 0 min 0 W/m 1,8 C 18,8 C 17,7 km/h (3 Bft)
22.03.2019 13:00 18,9 C 18,9 C 30 % 1037,0 hPa 0,0 l/m 7,4 km/h (2 Bft) N-NO 12 0 min 0 W/m 1,0 C 18,9 C 16,1 km/h (3 Bft)
22.03.2019 12:55 19,0 C 18,6 C 31 % 1037,1 hPa 0,0 l/m 5,5 km/h (1 Bft) O 89 0 min 0 W/m 1,5 C 19,0 C 14,5 km/h (3 Bft)
22.03.2019 12:50 18,6 C 18,1 C 34 % 1037,2 hPa 0,0 l/m 3,3 km/h (1 Bft) SO 124 0 min 0 W/m 2,4 C 18,6 C 8,0 km/h (2 Bft)
22.03.2019 12:45 18,1 C 18,1 C 34 % 1037,3 hPa 0,0 l/m 2,4 km/h (1 Bft) O-SO 103 0 min 0 W/m 2,0 C 18,1 C 6,4 km/h (2 Bft)
22.03.2019 12:40 18,3 C 17,9 C 36 % 1037,3 hPa 0,0 l/m 2,3 km/h (1 Bft) O-SO 112 0 min 0 W/m 3,0 C 18,3 C 6,4 km/h (2 Bft)
22.03.2019 12:35 17,9 C 17,9 C 34 % 1037,4 hPa 0,0 l/m 5,7 km/h (1 Bft) O-SO 102 0 min 0 W/m 1,8 C 17,9 C 12,9 km/h (3 Bft)
22.03.2019 12:30 17,9 C 17,8 C 35 % 1037,3 hPa 0,0 l/m 4,3 km/h (1 Bft) NW 315 0 min 0 W/m 2,2 C 17,9 C 9,7 km/h (2 Bft)
22.03.2019 12:25 17,8 C 17,7 C 35 % 1037,3 hPa 0,0 l/m 4,7 km/h (1 Bft) NW 315 0 min 0 W/m 2,1 C 17,8 C 9,7 km/h (2 Bft)
22.03.2019 12:20 17,7 C 17,1 C 37 % 1037,4 hPa 0,0 l/m 3,4 km/h (1 Bft) N-NW 335 0 min 0 W/m 2,8 C 17,7 C 8,0 km/h (2 Bft)
22.03.2019 12:15 17,1 C 16,7 C 38 % 1037,4 hPa 0,0 l/m 4,4 km/h (1 Bft) W-NW 290 0 min 0 W/m 2,7 C 17,1 C 9,7 km/h (2 Bft)
22.03.2019 12:10 16,7 C 16,4 C 42 % 1037,4 hPa 0,0 l/m 2,8 km/h (1 Bft) W-SW 257 0 min 0 W/m 3,7 C 16,7 C 6,4 km/h (2 Bft)
22.03.2019 12:05 16,5 C 16,3 C 39 % 1037,5 hPa 0,0 l/m 2,6 km/h (1 Bft) W 263 0 min 0 W/m 2,5 C 16,5 C 6,4 km/h (2 Bft)
22.03.2019 12:00 16,3 C 16,1 C 40 % 1037,6 hPa 0,0 l/m 3,0 km/h (1 Bft) N-NO 22 0 min 0 W/m 2,7 C 16,3 C 6,4 km/h (2 Bft)
22.03.2019 11:55 16,1 C 15,2 C 40 % 1037,6 hPa 0,0 l/m 2,1 km/h (1 Bft) N-NW 336 0 min 0 W/m 2,5 C 16,1 C 4,8 km/h (1 Bft)
22.03.2019 11:50 15,2 C 14,9 C 41 % 1037,7 hPa 0,0 l/m 0,5 km/h (0 Bft) S-SW 192 0 min 0 W/m 2,0 C 15,2 C 3,2 km/h (1 Bft)
22.03.2019 11:45 14,9 C 14,4 C 44 % 1037,8 hPa 0,0 l/m 1,6 km/h (1 Bft) S-SW 192 0 min 0 W/m 2,8 C 14,9 C 4,8 km/h (1 Bft)
22.03.2019 11:40 14,4 C 14,4 C 40 % 1037,8 hPa 0,0 l/m 2,7 km/h (1 Bft) W 261 0 min 0 W/m 1,0 C 14,4 C 6,4 km/h (2 Bft)
22.03.2019 11:35 14,4 C 14,3 C 43 % 1037,9 hPa 0,0 l/m 2,8 km/h (1 Bft) W 279 0 min 0 W/m 2,0 C 14,4 C 6,4 km/h (2 Bft)
22.03.2019 11:30 14,6 C 14,5 C 44 % 1037,9 hPa 0,0 l/m 4,2 km/h (1 Bft) W 267 0 min 0 W/m 2,5 C 14,6 C 9,7 km/h (2 Bft)
22.03.2019 11:25 14,5 C 14,3 C 45 % 1038,0 hPa 0,0 l/m 4,1 km/h (1 Bft) W-NW 285 0 min 0 W/m 2,7 C 14,5 C 8,0 km/h (2 Bft)
22.03.2019 11:20 14,3 C 14,1 C 44 % 1038,0 hPa 0,0 l/m 5,7 km/h (1 Bft) W-NW 294 0 min 0 W/m 2,2 C 14,3 C 11,3 km/h (2 Bft)
22.03.2019 11:15 14,1 C 13,8 C 45 % 1038,2 hPa 0,0 l/m 5,6 km/h (1 Bft) W-NW 288 0 min 0 W/m 2,4 C 14,1 C 12,9 km/h (3 Bft)
22.03.2019 11:10 13,8 C 13,8 C 45 % 1038,3 hPa 0,0 l/m 4,2 km/h (1 Bft) W-NW 282 0 min 0 W/m 2,1 C 13,8 C 11,3 km/h (2 Bft)
22.03.2019 11:05 13,9 C 13,7 C 46 % 1038,3 hPa 0,0 l/m 4,7 km/h (1 Bft) W-NW 294 0 min 0 W/m 2,5 C 13,9 C 9,7 km/h (2 Bft)
22.03.2019 11:00 13,7 C 13,6 C 45 % 1038,3 hPa 0,0 l/m 2,8 km/h (1 Bft) W-NW 292 0 min 0 W/m 2,0 C 13,7 C 6,4 km/h (2 Bft)
22.03.2019 10:55 13,6 C 13,5 C 43 % 1038,4 hPa 0,0 l/m 1,6 km/h (1 Bft) NW 308 0 min 0 W/m 1,3 C 13,6 C 6,4 km/h (2 Bft)
22.03.2019 10:50 13,6 C 13,1 C 43 % 1038,4 hPa 0,0 l/m 3,7 km/h (1 Bft) W-NW 288 0 min 0 W/m 1,3 C 13,6 C 6,4 km/h (2 Bft)
22.03.2019 10:45 13,1 C 13,1 C 44 % 1038,5 hPa 0,0 l/m 4,1 km/h (1 Bft) N-NW 332 0 min 0 W/m 1,1 C 13,1 C 6,4 km/h (2 Bft)
22.03.2019 10:40 13,1 C 13,1 C 44 % 1038,5 hPa 0,0 l/m 1,9 km/h (1 Bft) W-NW 289 0 min 0 W/m 1,1 C 13,1 C 4,8 km/h (1 Bft)
22.03.2019 10:35 13,1 C 12,9 C 44 % 1038,6 hPa 0,0 l/m 2,6 km/h (1 Bft) N 360 0 min 0 W/m 1,1 C 13,1 C 6,4 km/h (2 Bft)
22.03.2019 10:30 13,0 C 12,7 C 45 % 1038,6 hPa 0,0 l/m 1,4 km/h (1 Bft) NW 321 0 min 0 W/m 1,4 C 13,0 C 3,2 km/h (1 Bft)
22.03.2019 10:25 12,7 C 11,8 C 51 % 1038,8 hPa 0,0 l/m 1,4 km/h (1 Bft) NW 325 0 min 0 W/m 2,8 C 12,7 C 3,2 km/h (1 Bft)
22.03.2019 10:20 11,8 C 11,0 C 49 % 1038,7 hPa 0,0 l/m 1,5 km/h (1 Bft) N-NW 327 0 min 0 W/m 1,4 C 11,8 C 3,2 km/h (1 Bft)
22.03.2019 10:15 11,0 C 10,4 C 51 % 1038,8 hPa 0,0 l/m 2,3 km/h (1 Bft) N-NW 345 0 min 0 W/m 1,3 C 11,0 C 4,8 km/h (1 Bft)
22.03.2019 10:10 10,4 C 9,9 C 54 % 1038,8 hPa 0,0 l/m 1,9 km/h (1 Bft) NO 50 0 min 0 W/m 1,5 C 10,4 C 4,8 km/h (1 Bft)
22.03.2019 10:05 9,9 C 9,5 C 56 % 1038,8 hPa 0,0 l/m 1,4 km/h (1 Bft) S-SO 160 0 min 0 W/m 1,5 C 9,9 C 3,2 km/h (1 Bft)
22.03.2019 10:00 9,5 C 9,1 C 60 % 1038,8 hPa 0,0 l/m 1,6 km/h (1 Bft) S-SO 160 0 min 0 W/m 2,1 C 9,5 C 6,4 km/h (2 Bft)
22.03.2019 09:55 9,1 C 8,8 C 61 % 1038,8 hPa 0,0 l/m 1,1 km/h (1 Bft) S-SO 159 0 min 0 W/m 2,0 C 9,1 C 3,2 km/h (1 Bft)
22.03.2019 09:50 8,8 C 8,6 C 64 % 1038,9 hPa 0,0 l/m 2,0 km/h (1 Bft) S-SO 160 0 min 0 W/m 2,4 C 8,8 C 3,2 km/h (1 Bft)
22.03.2019 09:45 8,6 C 8,2 C 65 % 1038,9 hPa 0,0 l/m 1,7 km/h (1 Bft) S-SO 160 0 min 0 W/m 2,4 C 8,6 C 6,4 km/h (2 Bft)
22.03.2019 09:40 8,2 C 7,7 C 66 % 1039,0 hPa 0,0 l/m 2,6 km/h (1 Bft) S-SO 159 0 min 0 W/m 2,2 C 8,2 C 6,4 km/h (2 Bft)
22.03.2019 09:35 7,7 C 7,3 C 69 % 1039,0 hPa 0,0 l/m 2,7 km/h (1 Bft) S-SO 159 0 min 0 W/m 2,4 C 7,7 C 6,4 km/h (2 Bft)
22.03.2019 09:30 7,3 C 6,8 C 70 % 1039,0 hPa 0,0 l/m 2,8 km/h (1 Bft) S-SO 159 0 min 0 W/m 2,2 C 7,3 C 6,4 km/h (2 Bft)
22.03.2019 09:25 6,8 C 6,2 C 72 % 1039,1 hPa 0,0 l/m 1,7 km/h (1 Bft) S-SO 159 0 min 0 W/m 2,1 C 6,8 C 3,2 km/h (1 Bft)
22.03.2019 09:20 6,2 C 5,7 C 73 % 1039,1 hPa 0,0 l/m 1,5 km/h (1 Bft) S-SO 159 0 min 0 W/m 1,7 C 6,2 C 6,4 km/h (2 Bft)
22.03.2019 09:15 5,7 C 5,4 C 74 % 1039,2 hPa 0,0 l/m 2,2 km/h (1 Bft) S-SO 159 0 min 0 W/m 1,4 C 5,7 C 3,2 km/h (1 Bft)
22.03.2019 09:10 5,4 C 5,0 C 75 % 1039,3 hPa 0,0 l/m 2,5 km/h (1 Bft) S-SO 159 0 min 0 W/m 1,3 C 5,4 C 6,4 km/h (2 Bft)
22.03.2019 09:05 5,0 C 4,7 C 75 % 1039,3 hPa 0,0 l/m 1,7 km/h (1 Bft) S-SO 159 0 min 0 W/m 0,9 C 5,0 C 3,2 km/h (1 Bft)
22.03.2019 09:00 4,7 C 4,6 C 75 % 1039,3 hPa 0,0 l/m 1,6 km/h (1 Bft) S-SO 159 0 min 0 W/m 0,7 C 4,7 C 3,2 km/h (1 Bft)
22.03.2019 08:55 4,6 C 4,4 C 76 % 1039,4 hPa 0,0 l/m 2,6 km/h (1 Bft) S-SO 159 0 min 0 W/m 0,7 C 4,6 C 6,4 km/h (2 Bft)
22.03.2019 08:50 4,4 C 4,2 C 76 % 1039,4 hPa 0,0 l/m 3,2 km/h (1 Bft) S-SO 159 0 min 0 W/m 0,5 C 4,4 C 8,0 km/h (2 Bft)
22.03.2019 08:45 4,2 C 4,0 C 76 % 1039,5 hPa 0,0 l/m 5,8 km/h (2 Bft) S-SO 159 0 min 0 W/m 0,4 C 2,9 C 8,0 km/h (2 Bft)
22.03.2019 08:40 4,0 C 3,8 C 77 % 1039,6 hPa 0,0 l/m 4,8 km/h (1 Bft) S-SO 160 0 min 0 W/m 0,3 C 3,0 C 8,0 km/h (2 Bft)
22.03.2019 08:35 3,8 C 3,6 C 77 % 1039,7 hPa 0,0 l/m 3,2 km/h (1 Bft) S 178 0 min 0 W/m 0,1 C 3,8 C 6,4 km/h (2 Bft)
22.03.2019 08:30 3,6 C 3,5 C 77 % 1039,6 hPa 0,0 l/m 3,3 km/h (1 Bft) S-SO 155 0 min 0 W/m -0,0 C 3,6 C 4,8 km/h (1 Bft)
22.03.2019 08:25 3,5 C 3,4 C 77 % 1039,6 hPa 0,0 l/m 2,4 km/h (1 Bft) S-SO 155 0 min 0 W/m -0,1 C 3,5 C 4,8 km/h (1 Bft)
22.03.2019 08:20 3,4 C 3,3 C 77 % 1039,6 hPa 0,0 l/m 3,2 km/h (1 Bft) S-SO 155 0 min 0 W/m -0,2 C 3,4 C 4,8 km/h (1 Bft)
22.03.2019 08:15 3,3 C 3,3 C 77 % 1039,5 hPa 0,0 l/m 3,7 km/h (1 Bft) S-SO 155 0 min 0 W/m -0,3 C 3,3 C 6,4 km/h (2 Bft)
22.03.2019 08:10 3,3 C 3,3 C 77 % 1039,5 hPa 0,0 l/m 2,4 km/h (1 Bft) NW 319 0 min 0 W/m -0,3 C 3,3 C 4,8 km/h (1 Bft)
22.03.2019 08:05 3,4 C 3,4 C 76 % 1039,6 hPa 0,0 l/m 3,4 km/h (1 Bft) NW 319 0 min 0 W/m -0,4 C 3,4 C 4,8 km/h (1 Bft)
22.03.2019 08:00 3,7 C 3,7 C 76 % 1039,7 hPa 0,0 l/m 2,6 km/h (1 Bft) NW 319 0 min 0 W/m -0,1 C 3,7 C 4,8 km/h (1 Bft)
22.03.2019 07:55 3,8 C 3,7 C 77 % 1039,6 hPa 0,0 l/m 1,1 km/h (1 Bft) NW 319 0 min 0 W/m 0,1 C 3,8 C 3,2 km/h (1 Bft)
22.03.2019 07:50 3,7 C 3,4 C 79 % 1039,6 hPa 0,0 l/m 1,3 km/h (1 Bft) NW 319 0 min 0 W/m 0,4 C 3,7 C 3,2 km/h (1 Bft)
22.03.2019 07:45 3,4 C 2,9 C 82 % 1039,5 hPa 0,0 l/m 1,6 km/h (1 Bft) NW 319 0 min 0 W/m 0,6 C 3,4 C 3,2 km/h (1 Bft)
22.03.2019 07:40 2,9 C 2,1 C 85 % 1039,5 hPa 0,0 l/m 0,3 km/h (0 Bft) NW 319 0 min 0 W/m 0,6 C 2,9 C 1,6 km/h (1 Bft)
22.03.2019 07:35 2,1 C 1,2 C 88 % 1039,5 hPa 0,0 l/m 0,0 km/h (0 Bft) NW 319 0 min 0 W/m 0,3 C 2,1 C 0,0 km/h (0 Bft)
22.03.2019 07:30 1,2 C 0,4 C 89 % 1039,5 hPa 0,0 l/m 0,0 km/h (0 Bft) NW 319 0 min 0 W/m -0,4 C 1,2 C 0,0 km/h (0 Bft)
22.03.2019 07:25 0,4 C 0,1 C 88 % 1039,3 hPa 0,0 l/m 0,0 km/h (0 Bft) NW 319 0 min 0 W/m -1,3 C 0,4 C 0,0 km/h (0 Bft)
22.03.2019 07:20 0,1 C -0,1 C 87 % 1039,3 hPa 0,0 l/m 0,0 km/h (0 Bft) NW 319 0 min 0 W/m -1,8 C 0,1 C 0,0 km/h (0 Bft)
22.03.2019 07:15 -0,1 C -0,1 C 87 % 1039,3 hPa 0,0 l/m 0,0 km/h (0 Bft) NW 319 0 min 0 W/m -2,0 C -0,1 C 0,0 km/h (0 Bft)
22.03.2019 07:10 -0,1 C -0,1 C 87 % 1039,2 hPa 0,0 l/m 0,0 km/h (0 Bft) NW 319 0 min 0 W/m -2,0 C -0,1 C 0,0 km/h (0 Bft)
22.03.2019 07:05 -0,1 C -0,2 C 87 % 1039,2 hPa 0,0 l/m 0,0 km/h (0 Bft) NW 319 0 min 0 W/m -2,0 C -0,1 C 0,0 km/h (0 Bft)
22.03.2019 07:00 -0,2 C -0,2 C 87 % 1039,2 hPa 0,0 l/m 0,0 km/h (0 Bft) NW 319 0 min 0 W/m -2,1 C -0,2 C 0,0 km/h (0 Bft)
22.03.2019 06:55 -0,2 C -0,2 C 87 % 1039,2 hPa 0,0 l/m 0,0 km/h (0 Bft) NW 319 0 min 0 W/m -2,1 C -0,2 C 0,0 km/h (0 Bft)
22.03.2019 06:50 -0,2 C -0,2 C 87 % 1039,1 hPa 0,0 l/m 0,0 km/h (0 Bft) NW 319 0 min 0 W/m -2,1 C -0,2 C 0,0 km/h (0 Bft)
22.03.2019 06:45 -0,2 C -0,2 C 87 % 1039,0 hPa 0,0 l/m 0,0 km/h (0 Bft) NW 319 0 min 0 W/m -2,1 C -0,2 C 0,0 km/h (0 Bft)
22.03.2019 06:40 -0,2 C -0,2 C 87 % 1039,0 hPa 0,0 l/m 0,0 km/h (0 Bft) NW 319 0 min 0 W/m -2,1 C -0,2 C 0,0 km/h (0 Bft)
22.03.2019 06:35 -0,2 C -0,2 C 86 % 1039,0 hPa 0,0 l/m 0,0 km/h (0 Bft) NW 319 0 min 0 W/m -2,3 C -0,2 C 0,0 km/h (0 Bft)
22.03.2019 06:30 -0,1 C -0,2 C 86 % 1039,1 hPa 0,0 l/m 0,0 km/h (0 Bft) NW 319 0 min 0 W/m -2,2 C -0,1 C 0,0 km/h (0 Bft)
22.03.2019 06:25 -0,1 C -0,1 C 87 % 1039,1 hPa 0,0 l/m 0,0 km/h (0 Bft) NW 319 0 min 0 W/m -2,0 C -0,1 C 0,0 km/h (0 Bft)
22.03.2019 06:20 -0,1 C -0,1 C 87 % 1039,1 hPa 0,0 l/m 0,0 km/h (0 Bft) NW 319 0 min 0 W/m -2,0 C -0,1 C 0,0 km/h (0 Bft)
22.03.2019 06:15 -0,1 C -0,1 C 87 % 1039,1 hPa 0,0 l/m 0,0 km/h (0 Bft) NW 309 0 min 0 W/m -2,0 C -0,1 C 0,0 km/h (0 Bft)
22.03.2019 06:10 -0,1 C -0,1 C 86 % 1039,1 hPa 0,0 l/m 0,0 km/h (0 Bft) NW 309 0 min 0 W/m -2,2 C -0,1 C 0,0 km/h (0 Bft)
22.03.2019 06:05 -0,1 C -0,1 C 86 % 1039,1 hPa 0,0 l/m 0,0 km/h (0 Bft) NW 309 0 min 0 W/m -2,2 C -0,1 C 0,0 km/h (0 Bft)
22.03.2019 06:00 -0,1 C -0,1 C 86 % 1039,0 hPa 0,0 l/m 0,0 km/h (0 Bft) NW 309 0 min 0 W/m -2,2 C -0,1 C 0,0 km/h (0 Bft)
22.03.2019 05:55 -0,1 C -0,1 C 86 % 1039,0 hPa 0,0 l/m 0,0 km/h (0 Bft) NW 309 0 min 0 W/m -2,2 C -0,1 C 0,0 km/h (0 Bft)
22.03.2019 05:50 0,0 C 0,0 C 86 % 1039,0 hPa 0,0 l/m 0,0 km/h (0 Bft) NW 309 0 min 0 W/m -2,1 C 0,0 C 0,0 km/h (0 Bft)
22.03.2019 05:45 0,0 C 0,0 C 86 % 1038,9 hPa 0,0 l/m 0,0 km/h (0 Bft) NW 309 0 min 0 W/m -2,1 C 0,0 C 0,0 km/h (0 Bft)
22.03.2019 05:40 0,1 C 0,1 C 86 % 1038,9 hPa 0,0 l/m 0,0 km/h (0 Bft) NW 309 0 min 0 W/m -2,0 C 0,1 C 0,0 km/h (0 Bft)
22.03.2019 05:35 0,1 C 0,1 C 86 % 1038,8 hPa 0,0 l/m 0,0 km/h (0 Bft) NW 309 0 min 0 W/m -2,0 C 0,1 C 0,0 km/h (0 Bft)
22.03.2019 05:30 0,1 C 0,1 C 86 % 1038,8 hPa 0,0 l/m 0,0 km/h (0 Bft) NW 309 0 min 0 W/m -2,0 C 0,1 C 0,0 km/h (0 Bft)
22.03.2019 05:25 0,2 C 0,1 C 86 % 1038,8 hPa 0,0 l/m 0,0 km/h (0 Bft) NW 309 0 min 0 W/m -1,9 C 0,2 C 0,0 km/h (0 Bft)
22.03.2019 05:20 0,2 C 0,2 C 86 % 1038,8 hPa 0,0 l/m 0,0 km/h (0 Bft) NW 309 0 min 0 W/m -1,9 C 0,2 C 0,0 km/h (0 Bft)
22.03.2019 05:15 0,2 C 0,2 C 85 % 1038,7 hPa 0,0 l/m 0,0 km/h (0 Bft) NW 309 0 min 0 W/m -2,0 C 0,2 C 0,0 km/h (0 Bft)
22.03.2019 05:10 0,2 C 0,2 C 85 % 1038,7 hPa 0,0 l/m 0,0 km/h (0 Bft) NW 309 0 min 0 W/m -2,0 C 0,2 C 0,0 km/h (0 Bft)
22.03.2019 05:05 0,2 C 0,2 C 85 % 1038,8 hPa 0,0 l/m 0,0 km/h (0 Bft) NW 309 0 min 0 W/m -2,0 C 0,2 C 0,0 km/h (0 Bft)
22.03.2019 05:00 0,3 C 0,3 C 85 % 1038,8 hPa 0,0 l/m 0,0 km/h (0 Bft) NW 309 0 min 0 W/m -1,9 C 0,3 C 0,0 km/h (0 Bft)
22.03.2019 04:55 0,3 C 0,3 C 85 % 1038,8 hPa 0,0 l/m 0,0 km/h (0 Bft) NW 309 0 min 0 W/m -1,9 C 0,3 C 0,0 km/h (0 Bft)
22.03.2019 04:50 0,3 C 0,3 C 85 % 1038,8 hPa 0,0 l/m 0,0 km/h (0 Bft) NW 309 0 min 0 W/m -1,9 C 0,3 C 0,0 km/h (0 Bft)
22.03.2019 04:45 0,4 C 0,4 C 85 % 1038,8 hPa 0,0 l/m 0,0 km/h (0 Bft) NW 309 0 min 0 W/m -1,8 C 0,4 C 0,0 km/h (0 Bft)
22.03.2019 04:40 0,4 C 0,4 C 85 % 1038,7 hPa 0,0 l/m 0,0 km/h (0 Bft) NW 309 0 min 0 W/m -1,8 C 0,4 C 0,0 km/h (0 Bft)
22.03.2019 04:35 0,4 C 0,4 C 85 % 1038,7 hPa 0,0 l/m 0,0 km/h (0 Bft) NW 309 0 min 0 W/m -1,8 C 0,4 C 0,0 km/h (0 Bft)
22.03.2019 04:30 0,5 C 0,5 C 85 % 1038,7 hPa 0,0 l/m 0,0 km/h (0 Bft) NW 309 0 min 0 W/m -1,7 C 0,5 C 0,0 km/h (0 Bft)
22.03.2019 04:25 0,5 C 0,5 C 85 % 1038,7 hPa 0,0 l/m 0,0 km/h (0 Bft) NW 309 0 min 0 W/m -1,7 C 0,5 C 0,0 km/h (0 Bft)
22.03.2019 04:20 0,6 C 0,6 C 85 % 1038,8 hPa 0,0 l/m 0,0 km/h (0 Bft) NW 309 0 min 0 W/m -1,6 C 0,6 C 0,0 km/h (0 Bft)
22.03.2019 04:15 0,6 C 0,6 C 84 % 1038,6 hPa 0,0 l/m 0,0 km/h (0 Bft) NW 309 0 min 0 W/m -1,8 C 0,6 C 0,0 km/h (0 Bft)
22.03.2019 04:10 0,6 C 0,6 C 84 % 1038,8 hPa 0,0 l/m 0,0 km/h (0 Bft) NW 309 0 min 0 W/m -1,8 C 0,6 C 0,0 km/h (0 Bft)
22.03.2019 04:05 0,7 C 0,7 C 84 % 1038,7 hPa 0,0 l/m 0,0 km/h (0 Bft) NW 309 0 min 0 W/m -1,7 C 0,7 C 0,0 km/h (0 Bft)
22.03.2019 04:00 0,7 C 0,7 C 84 % 1038,7 hPa 0,0 l/m 0,0 km/h (0 Bft) NW 309 0 min 0 W/m -1,7 C 0,7 C 0,0 km/h (0 Bft)
22.03.2019 03:55 0,7 C 0,7 C 84 % 1038,7 hPa 0,0 l/m 0,0 km/h (0 Bft) NW 309 0 min 0 W/m -1,7 C 0,7 C 0,0 km/h (0 Bft)
22.03.2019 03:50 0,8 C 0,8 C 84 % 1038,8 hPa 0,0 l/m 0,0 km/h (0 Bft) NW 309 0 min 0 W/m -1,6 C 0,8 C 0,0 km/h (0 Bft)
22.03.2019 03:45 0,9 C 0,8 C 84 % 1038,8 hPa 0,0 l/m 0,0 km/h (0 Bft) NW 308 0 min 0 W/m -1,5 C 0,9 C 0,0 km/h (0 Bft)
22.03.2019 03:40 0,9 C 0,9 C 84 % 1038,7 hPa 0,0 l/m 0,0 km/h (0 Bft) NW 309 0 min 0 W/m -1,5 C 0,9 C 0,0 km/h (0 Bft)
22.03.2019 03:35 0,9 C 0,9 C 84 % 1038,8 hPa 0,0 l/m 0,0 km/h (0 Bft) NW 309 0 min 0 W/m -1,5 C 0,9 C 0,0 km/h (0 Bft)
22.03.2019 03:30 1,0 C 1,0 C 84 % 1038,8 hPa 0,0 l/m 0,0 km/h (0 Bft) NW 308 0 min 0 W/m -1,4 C 1,0 C 0,0 km/h (0 Bft)
22.03.2019 03:25 1,1 C 1,0 C 84 % 1038,7 hPa 0,0 l/m 0,0 km/h (0 Bft) NW 308 0 min 0 W/m -1,3 C 1,1 C 0,0 km/h (0 Bft)
22.03.2019 03:20 1,1 C 1,1 C 84 % 1038,8 hPa 0,0 l/m 0,0 km/h (0 Bft) NW 308 0 min 0 W/m -1,3 C 1,1 C 0,0 km/h (0 Bft)
22.03.2019 03:15 1,1 C 1,1 C 84 % 1038,8 hPa 0,0 l/m 0,0 km/h (0 Bft) NW 309 0 min 0 W/m -1,3 C 1,1 C 0,0 km/h (0 Bft)
22.03.2019 03:10 1,1 C 1,1 C 83 % 1038,8 hPa 0,0 l/m 0,0 km/h (0 Bft) N-NW 345 0 min 0 W/m -1,5 C 1,1 C 0,0 km/h (0 Bft)
22.03.2019 03:05 1,2 C 1,2 C 83 % 1038,8 hPa 0,0 l/m 0,0 km/h (0 Bft) N-NW 345 0 min 0 W/m -1,4 C 1,2 C 0,0 km/h (0 Bft)
22.03.2019 03:00 1,2 C 1,2 C 83 % 1038,8 hPa 0,0 l/m 0,0 km/h (0 Bft) N-NW 345 0 min 0 W/m -1,4 C 1,2 C 0,0 km/h (0 Bft)
22.03.2019 02:55 1,2 C 1,2 C 83 % 1038,8 hPa 0,0 l/m 0,0 km/h (0 Bft) N-NW 345 0 min 0 W/m -1,4 C 1,2 C 0,0 km/h (0 Bft)
22.03.2019 02:50 1,3 C 1,3 C 83 % 1038,8 hPa 0,0 l/m 0,0 km/h (0 Bft) N-NW 345 0 min 0 W/m -1,3 C 1,3 C 0,0 km/h (0 Bft)
22.03.2019 02:45 1,3 C 1,3 C 82 % 1038,8 hPa 0,0 l/m 0,0 km/h (0 Bft) N-NW 345 0 min 0 W/m -1,4 C 1,3 C 0,0 km/h (0 Bft)
22.03.2019 02:40 1,4 C 1,4 C 82 % 1038,8 hPa 0,0 l/m 0,0 km/h (0 Bft) N-NW 345 0 min 0 W/m -1,3 C 1,4 C 0,0 km/h (0 Bft)
22.03.2019 02:35 1,4 C 1,4 C 82 % 1038,8 hPa 0,0 l/m 0,0 km/h (0 Bft) N-NW 345 0 min 0 W/m -1,3 C 1,4 C 0,0 km/h (0 Bft)
22.03.2019 02:30 1,5 C 1,4 C 82 % 1038,9 hPa 0,0 l/m 0,0 km/h (0 Bft) N-NW 345 0 min 0 W/m -1,2 C 1,5 C 0,0 km/h (0 Bft)
22.03.2019 02:25 1,5 C 1,5 C 81 % 1039,0 hPa 0,0 l/m 0,0 km/h (0 Bft) N-NW 345 0 min 0 W/m -1,4 C 1,5 C 0,0 km/h (0 Bft)
22.03.2019 02:20 1,6 C 1,6 C 81 % 1039,0 hPa 0,0 l/m 0,0 km/h (0 Bft) N-NW 345 0 min 0 W/m -1,3 C 1,6 C 1,6 km/h (1 Bft)
22.03.2019 02:15 1,7 C 1,7 C 81 % 1039,0 hPa 0,0 l/m 0,1 km/h (0 Bft) N-NW 345 0 min 0 W/m -1,2 C 1,7 C 1,6 km/h (1 Bft)
22.03.2019 02:10 1,7 C 1,7 C 81 % 1038,9 hPa 0,0 l/m 0,3 km/h (0 Bft) N-NW 345 0 min 0 W/m -1,2 C 1,7 C 1,6 km/h (1 Bft)
22.03.2019 02:05 1,8 C 1,8 C 81 % 1039,0 hPa 0,0 l/m 0,0 km/h (0 Bft) N-NW 345 0 min 0 W/m -1,1 C 1,8 C 1,6 km/h (1 Bft)
22.03.2019 02:00 1,8 C 1,8 C 81 % 1039,0 hPa 0,0 l/m 0,0 km/h (0 Bft) N-NW 345 0 min 0 W/m -1,1 C 1,8 C 0,0 km/h (0 Bft)
22.03.2019 01:55 1,9 C 1,9 C 81 % 1039,0 hPa 0,0 l/m 0,0 km/h (0 Bft) N-NW 345 0 min 0 W/m -1,0 C 1,9 C 0,0 km/h (0 Bft)
22.03.2019 01:50 2,0 C 2,0 C 81 % 1039,0 hPa 0,0 l/m 0,0 km/h (0 Bft) N-NW 345 0 min 0 W/m -0,9 C 2,0 C 0,0 km/h (0 Bft)
22.03.2019 01:45 2,1 C 2,1 C 80 % 1039,1 hPa 0,0 l/m 0,0 km/h (0 Bft) N-NW 345 0 min 0 W/m -1,0 C 2,1 C 0,0 km/h (0 Bft)
22.03.2019 01:40 2,1 C 2,1 C 80 % 1039,1 hPa 0,0 l/m 0,4 km/h (0 Bft) N-NW 345 0 min 0 W/m -1,0 C 2,1 C 1,6 km/h (1 Bft)
22.03.2019 01:35 2,2 C 2,2 C 80 % 1039,2 hPa 0,0 l/m 0,0 km/h (0 Bft) N-NW 345 0 min 0 W/m -0,9 C 2,2 C 1,6 km/h (1 Bft)
22.03.2019 01:30 2,2 C 2,2 C 80 % 1039,2 hPa 0,0 l/m 0,1 km/h (0 Bft) N-NW 345 0 min 0 W/m -0,9 C 2,2 C 1,6 km/h (1 Bft)
22.03.2019 01:25 2,3 C 2,3 C 80 % 1039,3 hPa 0,0 l/m 0,3 km/h (0 Bft) N-NW 345 0 min 0 W/m -0,8 C 2,3 C 1,6 km/h (1 Bft)
22.03.2019 01:20 2,3 C 2,3 C 79 % 1039,2 hPa 0,0 l/m 1,0 km/h (0 Bft) N-NW 345 0 min 0 W/m -1,0 C 2,3 C 1,6 km/h (1 Bft)
22.03.2019 01:15 2,4 C 2,4 C 79 % 1039,2 hPa 0,0 l/m 0,7 km/h (0 Bft) N-NW 345 0 min 0 W/m -0,9 C 2,4 C 1,6 km/h (1 Bft)
22.03.2019 01:10 2,5 C 2,5 C 79 % 1039,3 hPa 0,0 l/m 1,5 km/h (1 Bft) N-NW 345 0 min 0 W/m -0,8 C 2,5 C 3,2 km/h (1 Bft)
22.03.2019 01:05 2,6 C 2,6 C 79 % 1039,3 hPa 0,0 l/m 1,6 km/h (1 Bft) N-NW 345 0 min 0 W/m -0,7 C 2,6 C 3,2 km/h (1 Bft)
22.03.2019 01:00 2,7 C 2,7 C 78 % 1039,4 hPa 0,0 l/m 2,3 km/h (1 Bft) N-NW 345 0 min 0 W/m -0,7 C 2,7 C 4,8 km/h (1 Bft)
22.03.2019 00:55 2,7 C 2,7 C 78 % 1039,3 hPa 0,0 l/m 2,5 km/h (1 Bft) N-NW 344 0 min 0 W/m -0,7 C 2,7 C 4,8 km/h (1 Bft)
22.03.2019 00:50 2,8 C 2,8 C 78 % 1039,5 hPa 0,0 l/m 2,3 km/h (1 Bft) N-NO 14 0 min 0 W/m -0,6 C 2,8 C 3,2 km/h (1 Bft)
22.03.2019 00:45 2,9 C 2,9 C 78 % 1039,5 hPa 0,0 l/m 2,3 km/h (1 Bft) N-NO 14 0 min 0 W/m -0,5 C 2,9 C 3,2 km/h (1 Bft)
22.03.2019 00:40 2,9 C 2,9 C 78 % 1039,5 hPa 0,0 l/m 2,5 km/h (1 Bft) N-NO 14 0 min 0 W/m -0,5 C 2,9 C 3,2 km/h (1 Bft)
22.03.2019 00:35 3,1 C 3,1 C 77 % 1039,5 hPa 0,0 l/m 1,0 km/h (0 Bft) N-NO 15 0 min 0 W/m -0,5 C 3,1 C 4,8 km/h (1 Bft)
22.03.2019 00:30 3,2 C 3,1 C 77 % 1039,5 hPa 0,0 l/m 0,0 km/h (0 Bft) N-NO 14 0 min 0 W/m -0,4 C 3,2 C 1,6 km/h (1 Bft)
22.03.2019 00:25 3,3 C 3,3 C 77 % 1039,4 hPa 0,0 l/m 1,2 km/h (1 Bft) N-NO 15 0 min 0 W/m -0,3 C 3,3 C 3,2 km/h (1 Bft)
22.03.2019 00:20 3,4 C 3,4 C 76 % 1039,5 hPa 0,0 l/m 1,8 km/h (1 Bft) N-NO 15 0 min 0 W/m -0,4 C 3,4 C 3,2 km/h (1 Bft)
22.03.2019 00:15 3,4 C 3,4 C 76 % 1039,5 hPa 0,0 l/m 2,5 km/h (1 Bft) N-NO 15 0 min 0 W/m -0,4 C 3,4 C 4,8 km/h (1 Bft)
22.03.2019 00:10 3,6 C 3,6 C 76 % 1039,5 hPa 0,0 l/m 2,3 km/h (1 Bft) N-NO 15 0 min 0 W/m -0,2 C 3,6 C 4,8 km/h (1 Bft)
22.03.2019 00:05 3,6 C 3,6 C 76 % 1039,5 hPa 0,0 l/m 2,8 km/h (1 Bft) N-NO 19 0 min 0 W/m -0,2 C 3,6 C 4,8 km/h (1 Bft)
22.03.2019 00:00 3,7 C 3,6 C 76 % 1039,6 hPa 0,0 l/m 2,9 km/h (1 Bft) N-NO 19 0 min 0 W/m -0,1 C 3,7 C 4,8 km/h (1 Bft)
_ Min-Zeit 06:30 06:30 13:00 14:20 - 00:30 - - - - 06:35 06:35 01:45
Minimum _ -0,2 C -0,2 C 30 % 1036,0 hPa - 0,0 km/h (0 Bft) - - - - -2,3 C -0,2 C 0,0 km/h (0 Bft)
_ Max-Zeit 14:05 14:10 07:30 08:00 00:00 13:45 - - 00:00 00:00 12:10 14:05 13:45
Maximum _ 19,4 C 19,4 C 89 % 1039,7 hPa 0,0 l/m 10,8 km/h
O (2 Bft)
- - 0 min 0 W/m 3,7 C 19,4 C 22,5 km/h
NO (4 Bft)
Durchschnitt _ 6,4 C 6,2 C 68 % 1038,6 hPa #0,0 l/m 1,9 km/h (1 Bft) S-SO - #0 min. 0 W/m -0,0 C 6,4 C 4,4 km/h (1 Bft)